| time (UTC) | temp C | wind direction | speed KPH | gust KPH | rain 1hr cm | rain 24hr cm | rain mn cm | humidity % | barometer mb |
| 20260502202803 | 19 | 110 | 1.6 | 8.0 | 0.00 | 0.03 | 0.03 | 82 | 1015.9 |
| 20260502202305 | 19 | 110 | 4.8 | 8.0 | 0.00 | 0.03 | 0.03 | 82 | 1015.8 |
| 20260502201304 | 19 | 109 | 3.2 | 8.0 | 0.00 | 0.03 | 0.03 | 81 | 1015.9 |
| 20260502200804 | 19 | 108 | 3.2 | 8.0 | 0.00 | 0.03 | 0.03 | 81 | 1015.9 |
| 20260502200304 | 19 | 103 | 4.8 | 11.3 | 0.00 | 0.03 | 0.03 | 81 | 1015.8 |
| 20260502195804 | 19 | 115 | 3.2 | 9.7 | 0.00 | 0.03 | 0.03 | 81 | 1016.0 |
| 20260502194803 | 19 | 122 | 1.6 | 8.0 | 0.00 | 0.03 | 0.03 | 81 | 1015.9 |
| 20260502194303 | 19 | 118 | 6.4 | 12.9 | 0.00 | 0.03 | 0.03 | 81 | 1015.7 |
| 20260502193804 | 19 | 97 | 6.4 | 12.9 | 0.00 | 0.03 | 0.03 | 81 | 1015.7 |
| 20260502192804 | 19 | 116 | 8.0 | 14.5 | 0.00 | 0.03 | 0.03 | 81 | 1015.6 |
| 20260502191804 | 19 | 128 | 8.0 | 12.9 | 0.00 | 0.03 | 0.03 | 80 | 1015.4 |
| 20260502190804 | 20 | 105 | 9.7 | 19.3 | 0.00 | 0.03 | 0.03 | 80 | 1015.5 |
| 20260502190304 | 20 | 146 | 9.7 | 19.3 | 0.00 | 0.03 | 0.03 | 80 | 1015.5 |
| 20260502185803 | 20 | 115 | 6.4 | 12.9 | 0.00 | 0.03 | 0.03 | 80 | 1015.3 |
| 20260502185305 | 20 | 94 | 8.0 | 11.3 | 0.00 | 0.03 | 0.03 | 79 | 1015.4 |
| 20260502184304 | 20 | 74 | 9.7 | 14.5 | 0.00 | 0.03 | 0.03 | 78 | 1015.4 |
| 20260502183804 | 20 | 115 | 8.0 | 14.5 | 0.00 | 0.03 | 0.03 | 78 | 1015.6 |
| 20260502183303 | 20 | 83 | 9.7 | 14.5 | 0.00 | 0.03 | 0.03 | 78 | 1015.5 |
| 20260502182804 | 20 | 93 | 9.7 | 14.5 | 0.00 | 0.03 | 0.03 | 78 | 1015.7 |
| 20260502181803 | 20 | 81 | 9.7 | 19.3 | 0.00 | 0.03 | 0.03 | 78 | 1016.0 |
| 20260502181303 | 20 | 88 | 9.7 | 19.3 | 0.00 | 0.03 | 0.03 | 78 | 1016.0 |
| 20260502180804 | 20 | 57 | 9.7 | 12.9 | 0.00 | 0.03 | 0.03 | 78 | 1016.0 |
| 20260502180304 | 20 | 115 | 8.0 | 14.5 | 0.00 | 0.03 | 0.03 | 78 | 1016.1 |
| 20260502170305 | 21 | 93 | 9.7 | 14.5 | 0.00 | 0.03 | 0.03 | 77 | 1016.0 |
| 20260502164305 | 21 | 143 | 9.7 | 19.3 | 0.00 | 0.03 | 0.03 | 75 | 1016.2 |
| 20260502163805 | 21 | 122 | 9.7 | 19.3 | 0.00 | 0.03 | 0.03 | 76 | 1016.1 |
| 20260502163305 | 21 | 108 | 6.4 | 12.9 | 0.00 | 0.03 | 0.03 | 75 | 1016.2 |
| 20260502162805 | 21 | 130 | 8.0 | 12.9 | 0.00 | 0.03 | 0.03 | 75 | 1016.1 |
| 20260502162305 | 21 | 77 | 8.0 | 14.5 | 0.00 | 0.03 | 0.03 | 76 | 1016.0 |
| 20260502161805 | 21 | 94 | 8.0 | 19.3 | 0.00 | 0.03 | 0.03 | 75 | 1016.1 |
| 20260502161304 | 21 | 108 | 11.3 | 14.5 | 0.00 | 0.03 | 0.03 | 75 | 1016.2 |
| 20260502160805 | 21 | 20 | 8.0 | 19.3 | 0.00 | 0.03 | 0.03 | 75 | 1016.0 |
| 20260502160304 | 21 | 131 | 9.7 | 19.3 | 0.00 | 0.03 | 0.03 | 76 | 1016.2 |
| 20260502152305 | 22 | 127 | 8.0 | 14.5 | 0.00 | 0.03 | 0.03 | 72 | 1016.6 |
| 20260502151304 | 22 | 130 | 9.7 | 19.3 | 0.00 | 0.03 | 0.03 | 71 | 1016.7 |
| 20260502150804 | 22 | 116 | 8.0 | 22.5 | 0.00 | 0.03 | 0.03 | 72 | 1016.8 |
| 20260502150305 | 22 | 118 | 9.7 | 19.3 | 0.00 | 0.03 | 0.03 | 72 | 1016.9 |
| 20260502123804 | 21 | 130 | 9.7 | 19.3 | 0.00 | 0.03 | 0.03 | 76 | 1018.3 |
| 20260502123304 | 21 | 108 | 11.3 | 16.1 | 0.00 | 0.03 | 0.03 | 76 | 1018.5 |
| 20260502122805 | 21 | 116 | 12.9 | 22.5 | 0.00 | 0.03 | 0.03 | 76 | 1018.6 |
| 20260502122306 | 22 | 113 | 9.7 | 14.5 | 0.00 | 0.03 | 0.03 | 76 | 1018.6 |
| 20260502121805 | 22 | 159 | 14.5 | 22.5 | 0.00 | 0.03 | 0.03 | 76 | 1018.5 |
| 20260502121305 | 22 | 139 | 9.7 | 19.3 | 0.00 | 0.03 | 0.03 | 76 | 1018.6 |
| 20260502120805 | 22 | 72 | 12.9 | 19.3 | 0.00 | 0.03 | 0.03 | 76 | 1018.6 |
| 20260502120305 | 22 | 100 | 14.5 | 19.3 | 0.00 | 0.03 | 0.03 | 76 | 1018.4 |
| 20260502115805 | 22 | 132 | 12.9 | 19.3 | 0.00 | 0.03 | 0.03 | 76 | 1018.5 |
| 20260502115306 | 22 | 131 | 12.9 | 19.3 | 0.00 | 0.03 | 0.03 | 76 | 1018.5 |
| 20260502114805 | 22 | 86 | 11.3 | 19.3 | 0.00 | 0.03 | 0.03 | 77 | 1018.4 |
| 20260502114304 | 21 | 116 | 11.3 | 19.3 | 0.00 | 0.03 | 0.03 | 77 | 1018.5 |
| 20260502113805 | 21 | 105 | 14.5 | 20.9 | 0.00 | 0.03 | 0.03 | 77 | 1018.5 |
| 20260502113304 | 21 | 106 | 11.3 | 19.3 | 0.00 | 0.03 | 0.03 | 78 | 1018.6 |
| 20260502112805 | 21 | 124 | 9.7 | 19.3 | 0.00 | 0.03 | 0.03 | 79 | 1018.7 |
| 20260502112306 | 21 | 117 | 8.0 | 12.9 | 0.00 | 0.03 | 0.03 | 79 | 1019.0 |
| 20260502111805 | 21 | 107 | 9.7 | 14.5 | 0.00 | 0.03 | 0.03 | 79 | 1019.0 |
| 20260502111305 | 21 | 119 | 9.7 | 19.3 | 0.00 | 0.03 | 0.03 | 78 | 1019.0 |
| 20260502110805 | 21 | 102 | 9.7 | 16.1 | 0.00 | 0.03 | 0.03 | 78 | 1019.0 |
| 20260502110304 | 21 | 83 | 9.7 | 20.9 | 0.00 | 0.03 | 0.03 | 78 | 1019.0 |
| 20260502105805 | 21 | 107 | 9.7 | 19.3 | 0.00 | 0.03 | 0.03 | 78 | 1019.0 |
| 20260502104804 | 21 | 77 | 4.8 | 11.3 | 0.00 | 0.03 | 0.03 | 78 | 1019.3 |
| 20260502103805 | 21 | 131 | 6.4 | 12.9 | 0.00 | 0.03 | 0.03 | 78 | 1019.2 |
| 20260502103304 | 21 | 79 | 9.7 | 14.5 | 0.00 | 0.03 | 0.03 | 78 | 1019.2 |
| 20260502102804 | 21 | 89 | 8.0 | 14.5 | 0.00 | 0.03 | 0.03 | 78 | 1019.2 |
| 20260502102306 | 21 | 128 | 8.0 | 14.5 | 0.00 | 0.03 | 0.03 | 78 | 1019.2 |
| 20260502101804 | 21 | 109 | 6.4 | 12.9 | 0.00 | 0.03 | 0.03 | 79 | 1019.2 |
| 20260502101305 | 21 | 111 | 9.7 | 12.9 | 0.00 | 0.03 | 0.03 | 79 | 1019.2 |
| 20260502100805 | 21 | 64 | 6.4 | 11.3 | 0.00 | 0.03 | 0.03 | 80 | 1019.2 |
| 20260502090804 | 20 | 107 | 0.0 | 3.2 | 0.03 | 0.03 | 0.03 | 83 | 1019.5 |
| 20260502090305 | 20 | 107 | 3.2 | 4.8 | 0.03 | 0.03 | 0.03 | 84 | 1019.6 |
| 20260502071304 | 19 | 162 | 1.6 | 4.8 | 0.00 | 0.00 | 0.00 | 86 | 1019.7 |
| 20260502070804 | 19 | 161 | 0.0 | 3.2 | 0.00 | 0.00 | 0.00 | 86 | 1019.7 |
| 20260502070304 | 19 | 161 | 1.6 | 3.2 | 0.00 | 0.00 | 0.00 | 86 | 1019.6 |
| 20260502065804 | 18 | 161 | 1.6 | 3.2 | 0.00 | 0.00 | 0.00 | 87 | 1019.6 |
| 20260502065306 | 18 | 162 | 3.2 | 4.8 | 0.00 | 0.00 | 0.00 | 87 | 1019.6 |
| 20260502064805 | 18 | 162 | 0.0 | 1.6 | 0.00 | 0.00 | 0.00 | 88 | 1019.6 |
| 20260502063804 | 18 | 162 | 0.0 | 3.2 | 0.00 | 0.00 | 0.00 | 89 | 1019.7 |
| 20260502063304 | 18 | 162 | 0.0 | 1.6 | 0.00 | 0.00 | 0.00 | 89 | 1019.6 |
| 20260502062804 | 18 | 161 | 0.0 | 1.6 | 0.00 | 0.00 | 0.00 | 89 | 1019.7 |
| 20260502062306 | 18 | 161 | 0.0 | 4.8 | 0.00 | 0.00 | 0.00 | 89 | 1019.9 |
| 20260502061805 | 18 | 161 | 0.0 | 3.2 | 0.00 | 0.00 | 0.00 | 89 | 1020.0 |
| 20260502061304 | 17 | 161 | 0.0 | 4.8 | 0.00 | 0.00 | 0.00 | 89 | 1019.8 |
| 20260502060804 | 17 | 161 | 0.0 | 0.0 | 0.00 | 0.00 | 0.00 | 89 | 1019.7 |
| 20260502060305 | 17 | 161 | 1.6 | 3.2 | 0.00 | 0.00 | 0.00 | 89 | 1019.7 |
| 20260502055804 | 17 | 161 | 0.0 | 4.8 | 0.00 | 0.00 | 0.00 | 89 | 1019.6 |
| 20260502055306 | 17 | 161 | 1.6 | 4.8 | 0.00 | 0.00 | 0.00 | 89 | 1019.5 |
| 20260502054804 | 17 | 161 | 0.0 | 3.2 | 0.00 | 0.00 | 0.00 | 89 | 1019.4 |
| 20260502053304 | 17 | 161 | 0.0 | 3.2 | 0.00 | 0.05 | 0.00 | 89 | 1019.4 |
| 20260502051804 | 17 | 162 | 1.6 | 4.8 | 0.00 | 0.05 | 0.00 | 88 | 1019.4 |
| 20260502051304 | 17 | 162 | 0.0 | 4.8 | 0.00 | 0.05 | 0.00 | 88 | 1019.2 |
| 20260502050804 | 17 | 162 | 0.0 | 1.6 | 0.00 | 0.05 | 0.00 | 88 | 1019.3 |
| 20260502050305 | 17 | 162 | 1.6 | 3.2 | 0.00 | 0.05 | 0.00 | 88 | 1019.2 |
| 20260502045804 | 17 | 162 | 0.0 | 1.6 | 0.00 | 0.05 | 0.00 | 88 | 1019.2 |
| 20260502045306 | 17 | 162 | 0.0 | 0.0 | 0.00 | 0.05 | 0.00 | 89 | 1019.2 |
| 20260502044804 | 17 | 162 | 0.0 | 0.0 | 0.00 | 0.05 | 0.00 | 89 | 1019.2 |
| 20260502044305 | 17 | 162 | 0.0 | 0.0 | 0.00 | 0.05 | 0.00 | 89 | 1019.2 |
| 20260502043804 | 17 | 162 | 0.0 | 0.0 | 0.00 | 0.05 | 0.00 | 89 | 1019.3 |
| 20260502043304 | 17 | 162 | 0.0 | 0.0 | 0.00 | 0.05 | 0.00 | 89 | 1019.3 |
| 20260502042804 | 17 | 161 | 0.0 | 0.0 | 0.00 | 0.05 | 0.00 | 89 | 1019.4 |
| 20260502042306 | 17 | 161 | 0.0 | 3.2 | 0.00 | 0.05 | 0.00 | 89 | 1019.4 |
| 20260502041804 | 17 | 161 | 1.6 | 4.8 | 0.00 | 0.05 | 0.00 | 89 | 1019.4 |
| 20260502041304 | 17 | 162 | 1.6 | 4.8 | 0.00 | 0.05 | 0.00 | 89 | 1019.4 |
| 20260502040304 | 17 | 162 | 0.0 | 4.8 | 0.00 | 0.05 | 0.00 | 89 | 1019.4 |
| 20260502035804 | 17 | 161 | 0.0 | 4.8 | 0.00 | 0.05 | 0.00 | 89 | 1019.6 |
| 20260502034804 | 17 | 161 | 1.6 | 4.8 | 0.00 | 0.05 | 0.00 | 89 | 1019.7 |
| 20260502034304 | 17 | 161 | 1.6 | 4.8 | 0.00 | 0.05 | 0.00 | 89 | 1019.7 |
| 20260502033805 | 17 | 161 | 0.0 | 3.2 | 0.00 | 0.05 | 0.00 | 89 | 1019.7 |
| 20260502033304 | 17 | 161 | 1.6 | 4.8 | 0.00 | 0.05 | 0.00 | 89 | 1019.8 |
| 20260502032804 | 17 | 161 | 0.0 | 3.2 | 0.00 | 0.05 | 0.00 | 89 | 1019.8 |
| 20260502032306 | 17 | 161 | 0.0 | 0.0 | 0.00 | 0.05 | 0.00 | 89 | 1019.8 |
| 20260502031804 | 17 | 161 | 0.0 | 3.2 | 0.00 | 0.05 | 0.00 | 89 | 1019.8 |
| 20260502031304 | 17 | 161 | 1.6 | 4.8 | 0.00 | 0.05 | 0.00 | 89 | 1019.8 |
| 20260502030804 | 17 | 161 | 0.0 | 1.6 | 0.00 | 0.05 | 0.00 | 89 | 1019.8 |
| 20260502030304 | 17 | 161 | 0.0 | 0.0 | 0.00 | 0.05 | 0.00 | 89 | 1019.8 |
| 20260502025306 | 17 | 161 | 0.0 | 0.0 | 0.00 | 0.05 | 0.00 | 89 | 1019.7 |
| 20260502024805 | 17 | 161 | 0.0 | 0.0 | 0.00 | 0.05 | 0.00 | 89 | 1019.7 |
| 20260502024304 | 17 | 161 | 0.0 | 0.0 | 0.00 | 0.05 | 0.00 | 89 | 1019.6 |
| 20260502023304 | 17 | 161 | 0.0 | 0.0 | 0.00 | 0.05 | 0.00 | 89 | 1019.7 |
| 20260502022804 | 17 | 161 | 0.0 | 0.0 | 0.00 | 0.05 | 0.00 | 89 | 1019.7 |
| 20260502022306 | 17 | 161 | 0.0 | 1.6 | 0.00 | 0.05 | 0.00 | 89 | 1019.7 |
| 20260502021304 | 17 | 161 | 0.0 | 0.0 | 0.00 | 0.05 | 0.00 | 89 | 1019.8 |
| 20260502020804 | 17 | 161 | 0.0 | 0.0 | 0.00 | 0.05 | 0.00 | 89 | 1019.8 |
| 20260502020304 | 17 | 161 | 0.0 | 1.6 | 0.00 | 0.05 | 0.00 | 89 | 1019.9 |
| 20260502015305 | 17 | 161 | 0.0 | 0.0 | 0.00 | 0.05 | 0.00 | 89 | 1019.9 |
| 20260502014804 | 17 | 161 | 0.0 | 1.6 | 0.00 | 0.05 | 0.00 | 89 | 1019.9 |
| 20260502014304 | 17 | 161 | 0.0 | 1.6 | 0.00 | 0.05 | 0.00 | 88 | 1019.9 |
| 20260502013803 | 17 | 161 | 0.0 | 0.0 | 0.00 | 0.05 | 0.00 | 88 | 1019.9 |
| 20260502013304 | 17 | 161 | 1.6 | 8.0 | 0.00 | 0.05 | 0.00 | 88 | 1019.9 |
| 20260502012804 | 17 | 162 | 3.2 | 8.0 | 0.00 | 0.05 | 0.00 | 88 | 1020.0 |
| 20260502011804 | 17 | 161 | 0.0 | 4.8 | 0.00 | 0.05 | 0.00 | 88 | 1020.1 |
| 20260502011304 | 17 | 162 | 3.2 | 8.0 | 0.00 | 0.05 | 0.00 | 88 | 1020.2 |
| 20260502010304 | 17 | 161 | 3.2 | 8.0 | 0.00 | 0.05 | 0.00 | 88 | 1020.3 |
| 20260502005804 | 17 | 115 | 0.0 | 1.6 | 0.00 | 0.05 | 0.00 | 88 | 1020.4 |
| 20260502005306 | 17 | 115 | 1.6 | 3.2 | 0.00 | 0.05 | 0.00 | 88 | 1020.4 |
| 20260502004804 | 17 | 115 | 0.0 | 1.6 | 0.00 | 0.05 | 0.00 | 88 | 1020.4 |
| 20260502004304 | 17 | 115 | 0.0 | 1.6 | 0.00 | 0.05 | 0.00 | 88 | 1020.5 |
| 20260502003804 | 17 | 115 | 0.0 | 1.6 | 0.00 | 0.05 | 0.00 | 88 | 1020.4 |
| 20260502003304 | 17 | 115 | 0.0 | 0.0 | 0.00 | 0.05 | 0.00 | 88 | 1020.4 |
| 20260502002804 | 17 | 115 | 1.6 | 3.2 | 0.00 | 0.05 | 0.00 | 88 | 1020.4 |
| 20260502002305 | 17 | 115 | 0.0 | 0.0 | 0.00 | 0.05 | 0.00 | 88 | 1020.6 |
| 20260502001804 | 17 | 115 | 0.0 | 0.0 | 0.00 | 0.05 | 0.00 | 88 | 1020.6 |
| 20260502001304 | 17 | 115 | 0.0 | 3.2 | 0.00 | 0.05 | 0.00 | 88 | 1020.7 |
| 20260502000804 | 17 | 115 | 1.6 | 3.2 | 0.00 | 0.05 | 0.00 | 88 | 1020.9 |
| 20260502000303 | 17 | 115 | 0.0 | 3.2 | 0.00 | 0.05 | 0.00 | 88 | 1020.9 |
| 20260501235804 | 17 | 115 | 0.0 | 0.0 | 0.00 | 0.05 | 0.00 | 88 | 1021.0 |
| 20260501235305 | 17 | 115 | 1.6 | 4.8 | 0.00 | 0.05 | 0.00 | 88 | 1021.0 |
| 20260501234804 | 17 | 115 | 1.6 | 3.2 | 0.00 | 0.05 | 0.00 | 88 | 1021.0 |
| 20260501234304 | 17 | 115 | 0.0 | 0.0 | 0.00 | 0.05 | 0.00 | 88 | 1021.0 |
| 20260501233804 | 17 | 115 | 0.0 | 0.0 | 0.00 | 0.05 | 0.00 | 88 | 1021.0 |
| 20260501233304 | 17 | 115 | 0.0 | 0.0 | 0.00 | 0.05 | 0.00 | 88 | 1021.2 |
| 20260501232804 | 17 | 115 | 1.6 | 3.2 | 0.00 | 0.05 | 0.00 | 88 | 1021.2 |
| 20260501232306 | 17 | 115 | 1.6 | 3.2 | 0.00 | 0.05 | 0.00 | 88 | 1021.3 |
| 20260501231804 | 17 | 115 | 0.0 | 3.2 | 0.00 | 0.05 | 0.00 | 88 | 1021.3 |
| 20260501231304 | 17 | 115 | 0.0 | 1.6 | 0.00 | 0.05 | 0.00 | 88 | 1021.3 |
| 20260501230804 | 17 | 115 | 1.6 | 3.2 | 0.00 | 0.05 | 0.00 | 87 | 1021.2 |
| 20260501230304 | 17 | 115 | 0.0 | 0.0 | 0.00 | 0.05 | 0.00 | 87 | 1021.1 |
| 20260501225804 | 17 | 115 | 0.0 | 0.0 | 0.00 | 0.05 | 0.00 | 87 | 1021.1 |
| 20260501225306 | 17 | 115 | 0.0 | 0.0 | 0.00 | 0.05 | 0.00 | 87 | 1021.1 |
| 20260501224804 | 17 | 115 | 0.0 | 0.0 | 0.00 | 0.05 | 0.00 | 87 | 1021.1 |
| 20260501224303 | 17 | 115 | 0.0 | 0.0 | 0.00 | 0.05 | 0.00 | 87 | 1021.2 |
| 20260501223804 | 17 | 115 | 0.0 | 1.6 | 0.00 | 0.05 | 0.00 | 86 | 1021.2 |
| 20260501223304 | 17 | 115 | 1.6 | 3.2 | 0.00 | 0.05 | 0.00 | 86 | 1021.2 |
| 20260501222305 | 18 | 115 | 0.0 | 0.0 | 0.00 | 0.05 | 0.00 | 86 | 1021.1 |
| 20260501221804 | 18 | 115 | 0.0 | 0.0 | 0.00 | 0.05 | 0.00 | 86 | 1021.2 |
| 20260501221304 | 18 | 115 | 0.0 | 0.0 | 0.00 | 0.05 | 0.00 | 86 | 1021.3 |
| 20260501220818 | 18 | 115 | 0.0 | 0.0 | 0.00 | 0.05 | 0.00 | 85 | 1021.3 |
| 20260501220305 | 18 | 115 | 0.0 | 0.0 | 0.00 | 0.05 | 0.00 | 85 | 1021.4 |
| 20260501215804 | 18 | 115 | 0.0 | 0.0 | 0.00 | 0.05 | 0.05 | 85 | 1021.4 |
| 20260501214804 | 18 | 115 | 0.0 | 0.0 | 0.00 | 0.05 | 0.05 | 85 | 1021.5 |
| 20260501214304 | 18 | 115 | 0.0 | 0.0 | 0.00 | 0.05 | 0.05 | 85 | 1021.5 |
| 20260501213804 | 18 | 115 | 0.0 | 0.0 | 0.00 | 0.05 | 0.05 | 85 | 1021.5 |
| 20260501213304 | 18 | 115 | 0.0 | 0.0 | 0.00 | 0.05 | 0.05 | 85 | 1021.5 |
| 20260501212306 | 18 | 115 | 0.0 | 0.0 | 0.00 | 0.05 | 0.05 | 85 | 1021.5 |
| 20260501211304 | 18 | 115 | 1.6 | 3.2 | 0.00 | 0.05 | 0.05 | 85 | 1021.6 |
| 20260501210804 | 18 | 115 | 0.0 | 1.6 | 0.00 | 0.05 | 0.05 | 84 | 1021.7 |
| 20260501210304 | 18 | 115 | 0.0 | 3.2 | 0.00 | 0.05 | 0.05 | 84 | 1021.7 |
| 20260501205306 | 18 | 115 | 1.6 | 3.2 | 0.00 | 0.05 | 0.05 | 84 | 1021.7 |
| 20260501204804 | 18 | 115 | 0.0 | 3.2 | 0.00 | 0.05 | 0.05 | 84 | 1021.7 |
| 20260501204304 | 18 | 115 | 0.0 | 3.2 | 0.00 | 0.05 | 0.05 | 84 | 1021.7 |
| 20260501203804 | 18 | 115 | 0.0 | 1.6 | 0.00 | 0.05 | 0.05 | 84 | 1021.6 |
| 20260501203304 | 19 | 115 | 0.0 | 3.2 | 0.00 | 0.05 | 0.05 | 84 | 1021.6 |